| time (UTC) | temp F | wind direction | speed MPH | gust MPH | rain 1hr in | rain 24hr in | rain mn in | humidity % | barometer mb |
| 20260510141551 | 75 | 178 | 10.0 | 18.0 | 0.00 | 0.00 | 0.00 | 57 | 1012.5 |
| 20260510140056 | 74 | 185 | 11.0 | 19.0 | 0.00 | 0.00 | 0.00 | 59 | 1012.2 |
| 20260510134553 | 73 | 184 | 14.0 | 23.0 | 0.00 | 0.00 | 0.00 | 60 | 1012.4 |
| 20260510133058 | 73 | 200 | 16.0 | 22.0 | 0.00 | 0.00 | 0.00 | 60 | 1012.1 |
| 20260510131551 | 72 | 199 | 12.0 | 21.0 | 0.00 | 0.00 | 0.00 | 62 | 1011.8 |
| 20260510130056 | 71 | 195 | 11.0 | 19.0 | 0.00 | 0.00 | 0.00 | 63 | 1011.7 |
| 20260510124559 | 70 | 184 | 10.0 | 15.0 | 0.00 | 0.00 | 0.00 | 65 | 1011.6 |
| 20260510123056 | 69 | 167 | 7.0 | 14.0 | 0.00 | 0.00 | 0.00 | 66 | 1011.5 |
| 20260510121552 | 69 | 178 | 8.0 | 15.0 | 0.00 | 0.00 | 0.00 | 66 | 1011.2 |
| 20260510120052 | 69 | 173 | 8.0 | 13.0 | 0.00 | 0.00 | 0.00 | 65 | 1011.1 |
| 20260510114554 | 69 | 179 | 7.0 | 14.0 | 0.00 | 0.00 | 0.00 | 65 | 1011.2 |
| 20260510113052 | 70 | 176 | 7.0 | 12.0 | 0.00 | 0.00 | 0.00 | 65 | 1011.0 |
| 20260510111553 | 69 | 179 | 8.0 | 14.0 | 0.00 | 0.00 | 0.00 | 65 | 1010.8 |
| 20260510110053 | 70 | 194 | 10.0 | 16.0 | 0.00 | 0.00 | 0.00 | 63 | 1010.8 |
| 20260510104601 | 71 | 181 | 9.0 | 16.0 | 0.00 | 0.00 | 0.00 | 62 | 1010.7 |
| 20260510103057 | 71 | 178 | 9.0 | 16.0 | 0.00 | 0.00 | 0.00 | 62 | 1010.6 |
| 20260510101603 | 72 | 175 | 10.0 | 19.0 | 0.00 | 0.00 | 0.00 | 60 | 1010.4 |
| 20260510100055 | 73 | 176 | 13.0 | 23.0 | 0.00 | 0.00 | 0.00 | 59 | 1010.4 |
| 20260510094600 | 72 | 200 | 13.0 | 22.0 | 0.00 | 0.00 | 0.00 | 59 | 1010.5 |
| 20260510093052 | 73 | 190 | 16.0 | 28.0 | 0.00 | 0.00 | 0.00 | 58 | 1010.3 |
| 20260510091551 | 73 | 191 | 16.0 | 28.0 | 0.00 | 0.00 | 0.00 | 57 | 1010.3 |
| 20260510090053 | 73 | 181 | 16.0 | 22.0 | 0.00 | 0.00 | 0.00 | 56 | 1010.5 |
| 20260510084601 | 73 | 189 | 18.0 | 26.0 | 0.00 | 0.00 | 0.00 | 55 | 1010.4 |
| 20260510083114 | 73 | 191 | 16.0 | 27.0 | 0.00 | 0.00 | 0.00 | 54 | 1010.4 |
| 20260510081611 | 73 | 186 | 13.0 | 21.0 | 0.00 | 0.00 | 0.00 | 53 | 1010.6 |
| 20260510080050 | 74 | 187 | 14.0 | 24.0 | 0.00 | 0.00 | 0.00 | 52 | 1010.7 |
| 20260510074553 | 74 | 182 | 13.0 | 20.0 | 0.00 | 0.00 | 0.00 | 52 | 1010.8 |
| 20260510073055 | 74 | 188 | 14.0 | 25.0 | 0.00 | 0.00 | 0.00 | 50 | 1010.9 |
| 20260510071555 | 75 | 187 | 13.0 | 23.0 | 0.00 | 0.00 | 0.00 | 49 | 1011.1 |
| 20260510070054 | 75 | 180 | 12.0 | 20.0 | 0.00 | 0.00 | 0.00 | 47 | 1011.1 |
| 20260510064554 | 75 | 169 | 11.0 | 20.0 | 0.00 | 0.00 | 0.00 | 45 | 1011.2 |
| 20260510063052 | 76 | 168 | 10.0 | 18.0 | 0.00 | 0.00 | 0.00 | 43 | 1011.3 |
| 20260510061601 | 76 | 177 | 11.0 | 19.0 | 0.00 | 0.00 | 0.00 | 42 | 1011.4 |
| 20260510060054 | 77 | 187 | 11.0 | 18.0 | 0.00 | 0.00 | 0.00 | 41 | 1011.2 |
| 20260510054556 | 77 | 178 | 10.0 | 21.0 | 0.00 | 0.00 | 0.00 | 40 | 1011.1 |
| 20260510053058 | 77 | 165 | 12.0 | 21.0 | 0.00 | 0.00 | 0.00 | 39 | 1011.1 |
| 20260510051557 | 78 | 178 | 12.0 | 19.0 | 0.00 | 0.00 | 0.00 | 39 | 1011.2 |
| 20260510050059 | 78 | 160 | 11.0 | 18.0 | 0.00 | 0.00 | 0.00 | 37 | 1011.2 |
| 20260510044552 | 79 | 158 | 11.0 | 21.0 | 0.00 | 0.00 | 0.00 | 35 | 1011.3 |
| 20260510043055 | 79 | 159 | 10.0 | 20.0 | 0.00 | 0.00 | 0.00 | 32 | 1011.3 |
| 20260510041559 | 79 | 181 | 9.0 | 16.0 | 0.00 | 0.00 | 0.00 | 30 | 1011.2 |
| 20260510040105 | 80 | 183 | 11.0 | 19.0 | 0.00 | 0.00 | 0.00 | 27 | 1011.1 |
| 20260510034604 | 81 | 169 | 9.0 | 17.0 | 0.00 | 0.00 | 0.00 | 26 | 1011.0 |
| 20260510033100 | 81 | 168 | 11.0 | 17.0 | 0.00 | 0.00 | 0.00 | 26 | 1010.9 |
| 20260510031610 | 82 | 156 | 10.0 | 17.0 | 0.00 | 0.00 | 0.00 | 26 | 1010.8 |
| 20260510030106 | 82 | 165 | 13.0 | 18.0 | 0.00 | 0.00 | 0.00 | 26 | 1010.6 |
| 20260510024559 | 83 | 161 | 10.0 | 17.0 | 0.00 | 0.00 | 0.00 | 26 | 1010.6 |
| 20260510023102 | 84 | 161 | 12.0 | 19.0 | 0.00 | 0.00 | 0.00 | 25 | 1010.5 |
| 20260510021555 | 84 | 161 | 12.0 | 16.0 | 0.00 | 0.00 | 0.00 | 24 | 1010.4 |
| 20260510020053 | 85 | 159 | 11.0 | 16.0 | 0.00 | 0.00 | 0.00 | 22 | 1010.4 |
| 20260510014600 | 86 | 169 | 10.0 | 15.0 | 0.00 | 0.00 | 0.00 | 18 | 1009.9 |
| 20260510013109 | 87 | 165 | 10.0 | 14.0 | 0.00 | 0.00 | 0.00 | 17 | 1010.0 |
| 20260510011553 | 89 | 169 | 7.0 | 14.0 | 0.00 | 0.00 | 0.00 | 16 | 1009.6 |
| 20260510010055 | 89 | 180 | 9.0 | 15.0 | 0.00 | 0.00 | 0.00 | 15 | 1009.8 |
| 20260510004558 | 90 | 177 | 7.0 | 13.0 | 0.00 | 0.00 | 0.00 | 14 | 1009.9 |
| 20260510003054 | 91 | 180 | 7.0 | 12.0 | 0.00 | 0.00 | 0.00 | 13 | 1010.0 |
| 20260510001555 | 91 | 198 | 6.0 | 13.0 | 0.00 | 0.00 | 0.00 | 14 | 1010.1 |
| 20260510000054 | 91 | 161 | 6.0 | 16.0 | 0.00 | 0.00 | 0.00 | 14 | 1010.2 |
| 20260509234556 | 91 | 171 | 8.0 | 15.0 | 0.00 | 0.00 | 0.00 | 13 | 1010.4 |
| 20260509233108 | 91 | 160 | 4.0 | 11.0 | 0.00 | 0.00 | 0.00 | 12 | 1010.3 |
| 20260509231559 | 92 | 232 | 13.0 | 17.0 | 0.00 | 0.00 | 0.00 | 13 | 1010.4 |
| 20260509230053 | 91 | 204 | 6.0 | 15.0 | 0.00 | 0.00 | 0.00 | 14 | 1010.5 |
| 20260509224553 | 91 | 237 | 8.0 | 18.0 | 0.00 | 0.00 | 0.00 | 13 | 1010.7 |
| 20260509223053 | 91 | 172 | 6.0 | 11.0 | 0.00 | 0.00 | 0.00 | 14 | 1010.8 |
| 20260509221554 | 91 | 242 | 8.0 | 14.0 | 0.00 | 0.00 | 0.00 | 13 | 1011.0 |
| 20260509220056 | 91 | 246 | 7.0 | 17.0 | 0.00 | 0.00 | 0.00 | 15 | 1011.1 |
| 20260509214555 | 91 | 205 | 9.0 | 18.0 | 0.00 | 0.00 | 0.00 | 14 | 1011.1 |
| 20260509213057 | 91 | 256 | 8.0 | 14.0 | 0.00 | 0.00 | 0.00 | 16 | 1011.2 |
| 20260509211556 | 90 | 178 | 13.0 | 23.0 | 0.00 | 0.00 | 0.00 | 17 | 1011.4 |
| 20260509210106 | 90 | 185 | 10.0 | 22.0 | 0.00 | 0.00 | 0.00 | 15 | 1011.6 |
| 20260509204603 | 90 | 214 | 11.0 | 20.0 | 0.00 | 0.00 | 0.00 | 19 | 1011.7 |
| 20260509203055 | 90 | 219 | 11.0 | 20.0 | 0.00 | 0.00 | 0.00 | 20 | 1012.1 |
| 20260509201600 | 88 | 167 | 11.0 | 20.0 | 0.00 | 0.00 | 0.00 | 20 | 1012.2 |
| 20260509200108 | 89 | 207 | 7.0 | 20.0 | 0.00 | 0.00 | 0.00 | 21 | 1012.4 |
| 20260509194555 | 88 | 202 | 7.0 | 19.0 | 0.00 | 0.00 | 0.00 | 23 | 1012.7 |
| 20260509193058 | 87 | 171 | 6.0 | 16.0 | 0.00 | 0.00 | 0.00 | 24 | 1012.9 |
| 20260509191604 | 86 | 220 | 11.0 | 18.0 | 0.00 | 0.00 | 0.00 | 25 | 1013.1 |
| 20260509184652 | 87 | 176 | 8.0 | 16.0 | 0.00 | 0.00 | 0.00 | 24 | 1013.4 |
| 20260509183101 | 86 | 235 | 10.0 | 18.0 | 0.00 | 0.00 | 0.00 | 27 | 1013.7 |
| 20260509181551 | 85 | 200 | 6.0 | 19.0 | 0.00 | 0.00 | 0.00 | 29 | 1013.7 |
| 20260509180108 | 85 | 213 | 8.0 | 18.0 | 0.00 | 0.00 | 0.00 | 29 | 1013.7 |
| 20260509174554 | 84 | 219 | 8.0 | 17.0 | 0.00 | 0.00 | 0.00 | 29 | 1013.9 |
| 20260509173057 | 84 | 195 | 4.0 | 15.0 | 0.00 | 0.00 | 0.00 | 33 | 1014.0 |
| 20260509171552 | 83 | 170 | 8.0 | 14.0 | 0.00 | 0.00 | 0.00 | 34 | 1014.2 |
| 20260509164559 | 81 | 168 | 9.0 | 15.0 | 0.00 | 0.00 | 0.00 | 36 | 1014.4 |
| 20260509163109 | 81 | 153 | 8.0 | 14.0 | 0.00 | 0.00 | 0.00 | 36 | 1014.6 |
| 20260509161553 | 80 | 235 | 8.0 | 16.0 | 0.00 | 0.00 | 0.00 | 38 | 1014.5 |
| 20260509160100 | 79 | 214 | 10.0 | 16.0 | 0.00 | 0.00 | 0.00 | 39 | 1014.5 |
| 20260509154558 | 78 | 182 | 10.0 | 17.0 | 0.00 | 0.00 | 0.00 | 44 | 1014.4 |
| 20260509153058 | 77 | 196 | 10.0 | 16.0 | 0.00 | 0.00 | 0.00 | 46 | 1014.6 |
| 20260509151555 | 76 | 182 | 9.0 | 15.0 | 0.00 | 0.00 | 0.00 | 48 | 1014.6 |
| 20260509150055 | 74 | 171 | 9.0 | 15.0 | 0.00 | 0.00 | 0.00 | 55 | 1014.5 |
| 20260509144555 | 73 | 223 | 10.0 | 14.0 | 0.00 | 0.00 | 0.00 | 57 | 1014.7 |
| 20260509143057 | 71 | 215 | 10.0 | 14.0 | 0.00 | 0.00 | 0.00 | 62 | 1014.7 |